Regional Weather Roundup
Issued by NWS

Home | Current Version | Previous Version | Graphics & Text | Print | Product List | Glossary On
Versions: 1 2 3 4 5 6 7 8 9 10 11 12 13 14 15 16 17 18 19 20 21 22 23 24 25 26 27 28 29 30 31 32 33 34 35 36 37 38 39 40 41 42 43 44 45 46 47 48 49 50
000
ASUS43 KDMX 202301
RWRIA

WEATHER ROUNDUP FOR IOWA
NATIONAL WEATHER SERVICE DES MOINES IA
500 PM CST MON FEB 20 2017

NOTE: "FAIR" INDICATES FEW OR NO CLOUDS BELOW 12,000 FEET WITH NO
SIGNIFICANT WEATHER AND/OR OBSTRUCTIONS TO VISIBILITY.

* - THESE STATIONS ARE NOT NWS STATIONS...THUS NOT UNDER NWS
QUALITY CONTROL.  THEY ALSO DO NOT REPORT WEATHER SUCH
AS PRECIPITATION OR FOG.

IAZ001>003-012>014-020>022-031>034-043>046-210000-
   NORTHWEST IOWA

CITY           SKY/WX    TMP DP  RH WIND       PRES   REMARKS
CARROLL *      CLOUDY    59  57  94 SW12      29.78R
CHEROKEE *     CLOUDY    49  47  90 W14G20    29.78R
DENISON *      CLOUDY    55  50  82 NW10G20   29.77R
LE MARS *      CLOUDY    55  46  71 NW9G15    29.79R
SHELDON *      MOCLDY    52  52 100 W15       29.73R
SIOUX CITY     CLOUDY    58  45  62 NW14      29.79R
SPENCER        MOCLDY    50  48  93 SW16      29.73R
STORM LAKE *   CLOUDY    50  46  87 W10       29.76R
$$

IAZ055>058-069>071-079>083-090>094-210000-
   SOUTHWEST IOWA

CITY           SKY/WX    TMP DP  RH WIND       PRES   REMARKS
ATLANTIC *     MOCLDY    59  57  94 SW10      29.81R
CLARINDA *     PTSUNNY   61  59  94 W6          N/A
COUNCIL BLFS * CLOUDY    59  59 100 SW8       29.79F
CRESTON *      CLOUDY    59  59 100 S9        29.83R
HARLAN  *      CLOUDY    59  59 100 SW10      29.82R
LAMONI         MOCLDY    62  57  83 S9        29.83R
RED OAK *        N/A     59  57  94 SW6       29.81S
SHENANDOAH *   CLOUDY    59  57  94 SW8       29.83R
$$

IAZ047>049-059>061-072>074-084-210000-
   CENTRAL IOWA

CITY           SKY/WX    TMP DP  RH WIND       PRES   REMARKS
AMES           CLOUDY    58  58 100 SW7       29.79R
ANKENY *       CLOUDY    61  57  88 S8        29.81R
BOONE *        CLOUDY    57  57 100 SW8       29.78R FOG
CHARITON *     CLOUDY    61  57  88 S10       29.82R
DES MOINES     CLOUDY    62  59  90 S8        29.81R
GRINNELL*      LGT RAIN  58  56  93 S8        29.82R
KNOXVILLE *    CLOUDY    61  57  88 S9        29.81R
MARSHALLTOWN   CLOUDY    58  57  97 S13       29.80R
NEWTON *       CLOUDY    59  57  94 SW9       29.81R
PELLA *        MOCLDY    61  58  89 S6        29.83R
PERRY *        MOCLDY    59  58  96 S7        29.79R
$$

IAZ004>006-015-016-023>025-035-036-210000-
   NORTH CENTRAL IOWA

CITY           SKY/WX    TMP DP  RH WIND       PRES   REMARKS
ALGONA *       CLOUDY    55  55 100 S12       29.73R FOG
CLARION *      CLOUDY    55  55 100 S9        29.75F FOG
ESTHERVILLE    MOCLDY    55  55 100 SW20G28   29.69F
FORT DODGE *   CLOUDY    55  54  94 S7        29.76R
MASON CITY     CLOUDY    54  53  97 SW10      29.76S
FOREST CITY *  DRIZZLE   54  54 100 S10       29.73F
IOWA FALLS *   DRIZZLE   56  56  97 S10       29.79R
$$

IAZ007>011-017>019-026>030-037>042-050>054-066-210000-
   NORTHEAST IOWA

CITY           SKY/WX    TMP DP  RH WIND       PRES   REMARKS
CEDAR RAPIDS   LGT RAIN  59  58  96 S15       29.83R
CHARLES CITY * LGT RAIN  55  55 100 S15       29.78R
CLINTON *      CLOUDY    65  54  67 S13       29.85S
DECORAH *      LGT RAIN  55  54  94 SW7G21    29.77R
DUBUQUE        LGT RAIN  55  53  93 S8        29.84S FOG
MONTICELLO *   LGT RAIN  57  55  94 MISG      29.85R
OELWEIN *      CLOUDY    55  55 100 S16       29.80S FOG
WATERLOO       LGT RAIN  56  54  93 S13       29.80R FOG
$$

IAZ064-065-067-068-078-210000-
   EAST CENTRAL IOWA

CITY           SKY/WX    TMP DP  RH WIND       PRES   REMARKS
DAVENPORT      CLOUDY    67  53  61 S16       29.85R
IOWA CITY      LGT RAIN  62  57  83 S14       29.86R
MUSCATINE *    CLOUDY    63  57  82 SW7       29.85R
QUAD CITIES    CLOUDY    72  51  47 S13       29.84R
$$

IAZ062-063-075>077-085>089-095>099-210000-
   SOUTHEAST IOWA

CITY           SKY/WX    TMP DP  RH WIND       PRES   REMARKS
BURLINGTON     CLOUDY    71  50  47 SW13      29.85R
FAIRFIELD *    CLOUDY    63  57  82 S7        29.85R
KEOKUK *       CLOUDY    72  52  49 SW9       29.84R
OTTUMWA        CLOUDY    63  58  83 S12       29.82F
WASHINGTON *   CLOUDY    61  59  94 S10       29.86S
$$

ABBREVIATIONS USED IN REMARKS
   TC - TEMPERATURES IN CELSIUS
  WCI - WIND CHILL INDEX
   HX - HEAT INDEX
  VSB - VISIBILITY
$$





USA.gov is the U.S. government's official web portal to all federal, state and local government web resources and services.